Wind_Speed
46 46 46 46 46 46 46 46 47 47 46 45 44 42 42 41 41 42 42 42 42 42 42 42 42 42 42 41 41 41 41 40 39 37 36 35 33 31 29 28 26 24 24
45 45 45 45 45 45 46 45 45 44 43 41 40 40 39 39 40 40 41 40 40 40 40 40 40 40 39 38 38 38 37 36 35 34 33 31 30 28 26 24 23 22 22
44 44 44 44 44 44 44 43 42 40 39 38 37 37 37 38 38 38 38 38 38 39 39 39 38 37 36 36 35 35 34 33 32 31 30 29 28 27 25 23 22 22 22
43 43 43 42 42 41 40 39 38 36 36 35 35 35 36 36 36 36 36 36 37 37 37 36 35 34 34 33 32 32 31 30 29 29 29 28 27 26 25 24 23 23 24
40 40 40 40 39 38 36 35 34 33 33 33 33 34 34 34 34 34 34 34 35 35 34 33 33 32 31 31 30 30 29 29 29 29 29 29 28 27 26 26 25 26 26
38 37 37 36 35 34 33 32 31 31 30 31 31 31 31 31 31 32 32 33 32 32 32 31 30 30 29 29 29 30 29 29 29 30 30 30 30 29 29 29 29 29 29
35 34 34 32 32 31 30 29 29 28 28 28 28 28 28 29 30 30 30 31 31 30 30 29 28 29 29 30 30 30 31 31 31 32 32 32 32 32 32 32 33 33 33
32 31 31 30 29 28 27 26 26 26 25 25 25 26 26 27 28 29 29 29 29 29 29 28 29 29 30 31 31 32 32 33 34 34 34 34 34 34 35 35 36 37 37
29 28 28 27 26 25 24 24 23 23 22 22 23 24 25 26 27 28 28 28 28 28 29 29 29 30 31 32 32 33 34 34 35 35 36 36 36 37 37 38 38 39 40
26 26 26 25 25 24 23 23 22 21 21 22 23 24 25 26 27 28 28 28 28 29 30 30 31 31 32 33 34 35 35 36 36 37 37 38 38 39 39 40 41 42 43
25 25 25 24 23 23 22 22 21 21 22 23 24 25 26 27 27 28 28 29 29 30 31 31 32 33 34 35 35 36 37 37 38 39 39 40 40 41 42 43 43 45 46
25 24 24 24 24 23 22 22 22 22 23 24 25 26 27 28 28 29 29 30 31 31 32 33 33 34 35 36 37 38 38 39 40 40 41 42 42 43 44 45 46 47 49
24 24 24 24 24 23 23 23 23 24 24 25 26 27 28 29 30 30 31 32 32 33 34 34 35 36 37 38 38 39 39 40 41 41 42 43 44 45 46 47 48 50 51
23 23 24 24 24 24 24 24 25 25 26 27 28 29 30 31 31 32 33 34 34 35 35 36 37 37 38 39 39 40 41 41 42 43 44 45 46 47 48 49 50 51 52
24 24 24 25 25 25 26 26 26 27 28 29 30 31 31 32 33 33 34 35 36 36 37 38 38 38 39 40 41 41 42 43 43 44 45 46 47 49 50 50 51 52 53
25 25 26 26 26 27 27 28 29 29 30 31 32 32 33 33 34 34 35 36 37 37 38 38 39 39 40 41 41 42 43 44 44 45 46 47 49 49 50 51 52 52 53
27 27 28 28 29 29 30 30 31 31 32 33 33 34 34 34 35 36 36 37 37 38 39 39 40 41 41 42 42 43 44 45 46 46 47 48 49 50 51 52 52 53 52
29 29 30 30 31 31 32 32 33 33 34 34 34 34 35 35 36 36 37 38 39 39 40 40 41 42 42 43 44 44 45 46 47 48 48 49 49 50 51 52 52 52 51
31 31 31 32 32 32 33 34 34 34 35 35 35 35 35 36 36 37 37 38 39 40 40 41 42 42 43 44 45 46 47 48 48 48 49 50 50 51 51 52 52 51 50
32 32 33 33 33 34 34 34 34 35 35 35 35 35 36 36 37 37 38 39 39 40 40 41 42 43 44 45 46 47 47 48 48 48 49 50 50 51 51 52 51 50 49
32 33 33 34 34 34 34 35 35 35 35 35 35 36 36 37 38 38 39 39 39 40 41 42 42 43 44 45 46 47 47 47 48 48 49 50 50 51 52 51 51 50 48
32 32 33 33 34 35 35 36 35 35 35 35 36 36 37 37 38 38 39 39 40 40 41 42 43 43 44 45 45 46 46 47 48 49 49 50 50 51 51 51 50 48 46
31 32 33 33 34 34 35 35 34 34 35 35 35 36 36 37 38 39 39 39 40 40 41 42 42 43 44 45 45 45 46 47 48 48 49 49 50 51 50 49 48 47 46
32 32 33 33 33 34 34 34 34 34 34 35 36 36 37 37 38 38 38 38 39 39 40 40 42 43 44 44 44 45 46 46 47 48 48 49 49 50 50 48 47 46 45
30 31 32 33 33 33 33 33 33 33 34 34 35 36 36 36 36 36 36 36 37 38 39 40 42 43 43 44 45 46 47 47 48 48 48 49 49 49 48 47 46 45 44
28 29 30 30 31 31 31 32 32 33 33 34 34 34 33 33 33 34 34 35 36 38 39 41 42 43 44 45 46 47 47 48 49 49 49 48 48 47 47 46 45 44 43
Wind_Direction
255 257 259 261 264 266 269 272 275 278 280 281 283 284 286 287 289 290 292 293 293 294 296 296 297 298 300 301 303 305 307 310 312 315 317 317 317 316 310 304 299 294 282
255 257 259 262 264 267 270 273 276 277 279 280 282 284 285 287 289 291 292 293 293 294 295 296 297 298 300 301 303 305 308 311 314 318 320 320 321 322 320 313 306 300 293
255 258 260 263 266 268 270 273 274 276 277 279 281 283 285 287 289 291 292 293 293 294 295 296 297 298 300 302 304 305 308 312 316 319 322 322 322 323 323 318 311 304 298
257 259 262 264 266 268 270 271 273 274 276 278 280 283 285 287 289 291 292 293 294 295 296 297 297 299 301 302 304 306 308 311 315 318 320 321 321 320 318 317 313 307 302
258 260 262 263 265 266 267 269 270 272 274 276 280 283 285 288 290 291 292 294 295 296 297 298 299 300 301 303 305 307 309 311 313 315 316 317 317 317 316 314 311 307 303
258 259 261 262 262 263 264 266 267 270 273 277 280 283 286 289 290 291 293 295 296 297 298 299 300 301 302 304 305 306 308 310 311 313 314 314 314 313 312 311 308 306 303
257 258 258 258 259 260 261 263 265 269 273 277 280 284 287 289 291 293 294 296 297 298 299 299 300 301 302 303 304 305 306 308 310 311 311 311 311 310 308 307 306 304 302
254 254 254 255 255 256 258 261 264 269 273 278 282 286 289 291 293 295 297 298 298 298 298 299 300 301 302 303 304 305 306 307 308 309 309 309 308 308 306 305 304 302 301
249 249 250 251 252 254 256 260 264 268 273 279 283 287 290 293 295 297 298 298 298 298 298 299 300 301 302 303 304 305 306 306 307 307 307 307 307 306 305 304 303 302 300
247 247 248 249 251 252 256 259 263 268 274 280 285 289 292 294 296 297 298 298 298 298 298 300 301 301 302 304 305 306 306 306 306 307 307 306 306 306 305 305 304 302 301
247 247 248 249 250 252 255 260 264 270 276 281 285 289 293 294 296 297 298 298 298 298 299 300 301 302 303 304 305 305 306 306 306 307 307 306 306 306 306 305 304 303 302
249 249 249 249 250 252 256 260 266 271 276 281 286 289 292 294 295 296 296 297 298 299 300 301 301 302 303 304 305 305 306 306 306 306 306 306 306 306 306 306 306 305 304
251 251 250 250 251 254 258 262 267 272 277 282 286 289 292 293 295 295 296 297 297 298 300 301 301 302 303 304 304 305 306 306 306 307 307 307 307 307 307 307 307 306 306
253 253 252 253 255 257 261 266 270 274 278 282 285 289 291 292 294 295 296 297 297 298 299 300 301 302 303 304 304 305 305 306 307 307 308 308 308 308 308 308 308 308 308
256 257 257 257 259 261 264 268 272 276 279 282 285 288 290 292 294 295 296 297 298 299 299 300 301 302 303 304 304 305 306 307 307 308 308 308 309 309 309 309 309 309 309
260 260 261 262 263 265 267 270 274 277 281 283 286 288 290 292 293 294 296 297 298 299 300 301 301 302 303 304 305 305 306 307 307 308 309 309 310 310 310 310 311 311 310
262 263 264 265 266 269 271 273 275 278 281 284 286 287 289 291 292 294 295 297 298 299 300 301 301 302 303 304 305 305 306 307 307 308 309 310 311 311 311 312 312 313 312
264 265 266 267 269 271 273 275 277 279 282 284 286 288 289 291 292 293 295 297 298 299 300 301 301 302 303 305 305 306 307 307 308 309 310 311 312 312 313 313 314 314 314
266 267 268 270 271 273 275 276 278 280 282 284 286 288 289 290 292 293 295 297 298 299 300 301 302 303 304 305 306 306 307 308 309 309 310 312 312 313 314 315 315 315 314
268 268 269 270 272 274 276 277 278 280 282 284 285 287 289 290 292 293 295 297 298 300 301 302 303 304 306 306 307 308 309 309 309 310 311 312 313 314 315 316 316 315 315
269 269 270 271 273 274 275 276 277 279 281 283 285 286 288 290 292 293 295 297 298 300 302 303 304 306 307 309 309 310 310 310 310 311 312 313 314 315 316 316 316 316 316
270 271 271 272 273 273 274 276 277 278 279 281 283 285 287 289 291 293 296 298 299 301 302 303 305 307 309 310 311 311 311 311 312 313 313 314 314 316 316 316 316 316 316
272 272 273 273 274 274 275 275 276 277 278 280 283 284 286 289 291 293 295 297 299 301 303 305 307 309 310 311 312 312 312 312 313 314 314 315 315 316 317 317 317 316 316
273 273 273 274 274 275 275 275 275 276 277 280 282 284 286 289 291 293 295 297 300 302 304 306 308 310 311 312 313 314 314 313 314 315 315 315 316 316 316 316 316 315 315
276 276 275 275 274 274 274 274 274 275 277 280 282 284 287 289 291 292 295 298 301 303 306 308 309 311 312 313 314 314 314 315 315 315 315 315 316 316 316 316 315 315 314
278 278 277 277 276 275 275 274 274 275 277 279 282 285 287 289 291 294 296 299 302 305 307 309 310 312 313 314 314 315 315 316 316 316 316 316 316 316 316 316 316 315 314
Height
5739 5741 5743 5744 5745 5745 5745 5745 5745 5744 5742 5741 5739 5737 5735 5733 5731 5728 5725 5722 5719 5716 5712 5708 5704 5700 5696 5691 5687 5682 5677 5671 5666 5660 5653 5646 5640 5634 5629 5625 5623 5621 5620
5729 5731 5733 5734 5735 5735 5735 5735 5735 5734 5732 5731 5729 5728 5726 5723 5721 5718 5716 5713 5710 5706 5703 5699 5695 5691 5687 5682 5678 5673 5668 5663 5658 5652 5646 5640 5635 5629 5625 5621 5619 5617 5617
5720 5721 5723 5724 5725 5725 5725 5725 5725 5724 5723 5721 5720 5718 5716 5714 5712 5709 5706 5703 5700 5697 5694 5690 5686 5682 5678 5674 5670 5665 5661 5656 5651 5646 5641 5635 5630 5626 5621 5618 5615 5614 5613
5710 5712 5713 5714 5715 5715 5715 5715 5715 5714 5713 5712 5711 5709 5707 5705 5703 5700 5698 5695 5692 5688 5685 5681 5677 5673 5670 5666 5662 5658 5653 5649 5644 5640 5635 5630 5626 5622 5618 5614 5611 5609 5608
5701 5702 5704 5705 5705 5706 5706 5706 5706 5705 5704 5703 5702 5701 5699 5697 5694 5692 5689 5686 5683 5680 5676 5672 5669 5665 5662 5658 5654 5650 5646 5642 5638 5634 5629 5625 5621 5617 5613 5610 5607 5604 5602
5691 5693 5694 5695 5696 5696 5697 5697 5697 5697 5696 5695 5694 5692 5690 5688 5686 5684 5681 5678 5675 5672 5668 5665 5661 5658 5655 5651 5647 5644 5640 5636 5631 5627 5623 5619 5615 5611 5607 5604 5601 5598 5596
5682 5684 5685 5686 5687 5688 5688 5689 5689 5688 5688 5687 5686 5684 5683 5681 5678 5676 5673 5670 5667 5664 5661 5657 5654 5651 5647 5644 5640 5637 5632 5628 5624 5620 5616 5612 5608 5604 5600 5597 5593 5590 5587
5674 5675 5677 5678 5679 5680 5680 5681 5681 5681 5680 5679 5678 5677 5675 5673 5671 5668 5666 5663 5660 5657 5654 5650 5647 5644 5640 5637 5633 5629 5625 5620 5616 5612 5608 5604 5600 5596 5592 5588 5585 5581 5578
5666 5667 5669 5670 5671 5672 5673 5674 5674 5674 5673 5672 5671 5670 5668 5666 5664 5661 5658 5655 5652 5650 5647 5643 5640 5637 5633 5629 5626 5621 5617 5613 5608 5604 5599 5595 5591 5587 5583 5579 5575 5571 5567
5659 5660 5662 5663 5664 5665 5666 5667 5667 5666 5666 5665 5664 5662 5661 5659 5656 5654 5651 5648 5645 5643 5639 5636 5633 5629 5625 5621 5617 5613 5609 5604 5600 5595 5591 5586 5581 5577 5573 5568 5564 5559 5555
5652 5653 5655 5656 5657 5658 5659 5659 5660 5659 5659 5658 5657 5655 5654 5652 5649 5647 5644 5641 5638 5635 5632 5628 5625 5621 5617 5613 5609 5604 5600 5595 5591 5586 5581 5576 5572 5567 5562 5557 5552 5547 5542
5645 5647 5648 5649 5650 5651 5652 5652 5652 5652 5652 5651 5650 5648 5646 5644 5642 5639 5636 5633 5630 5627 5624 5620 5616 5613 5609 5604 5600 5596 5591 5586 5581 5576 5571 5566 5561 5556 5550 5545 5539 5534 5528
5639 5640 5642 5643 5644 5644 5645 5645 5645 5645 5644 5643 5642 5640 5639 5637 5634 5631 5629 5626 5622 5619 5615 5612 5608 5604 5600 5595 5591 5586 5582 5577 5571 5566 5561 5555 5550 5544 5538 5532 5526 5520 5513
5633 5634 5635 5636 5637 5637 5638 5638 5638 5637 5637 5636 5634 5633 5631 5629 5626 5623 5620 5617 5614 5610 5607 5603 5599 5595 5591 5586 5581 5577 5572 5567 5561 5556 5550 5544 5538 5532 5525 5519 5512 5505 5498
5626 5627 5628 5629 5629 5630 5630 5630 5630 5629 5629 5627 5626 5624 5622 5620 5617 5615 5611 5608 5605 5601 5598 5594 5590 5585 5581 5576 5572 5567 5562 5556 5551 5545 5539 5532 5526 5519 5512 5506 5499 5491 5484
5619 5620 5621 5621 5622 5622 5622 5622 5622 5621 5620 5619 5617 5615 5613 5611 5608 5606 5602 5599 5596 5592 5588 5584 5580 5575 5571 5566 5561 5556 5551 5545 5540 5533 5527 5521 5514 5507 5499 5492 5485 5478 5470
5612 5612 5613 5614 5614 5614 5614 5613 5613 5612 5611 5610 5608 5606 5604 5601 5599 5596 5593 5590 5586 5582 5578 5574 5570 5565 5561 5556 5551 5545 5540 5534 5528 5522 5515 5508 5501 5494 5486 5478 5471 5463 5455
5603 5604 5604 5605 5605 5605 5605 5604 5604 5603 5602 5600 5598 5596 5594 5592 5589 5586 5583 5580 5576 5572 5568 5564 5559 5555 5550 5545 5540 5534 5528 5522 5516 5509 5503 5496 5488 5481 5473 5465 5457 5449 5442
5595 5595 5595 5595 5595 5595 5595 5594 5594 5593 5592 5590 5588 5586 5584 5582 5579 5576 5573 5570 5566 5562 5558 5553 5549 5544 5539 5534 5528 5522 5516 5510 5504 5497 5490 5483 5476 5468 5460 5452 5444 5436 5428
5585 5585 5585 5585 5586 5585 5585 5584 5583 5582 5581 5580 5578 5576 5574 5571 5569 5566 5563 5559 5555 5551 5547 5542 5538 5533 5527 5522 5516 5510 5504 5498 5491 5484 5477 5470 5463 5455 5448 5439 5431 5424 5416
5575 5575 5575 5575 5575 5575 5574 5574 5573 5572 5571 5569 5568 5566 5564 5561 5558 5555 5552 5549 5545 5540 5536 5531 5526 5522 5516 5511 5505 5499 5492 5486 5479 5472 5465 5457 5450 5442 5435 5427 5419 5411 5404
5565 5565 5565 5564 5564 5564 5563 5563 5562 5561 5560 5558 5557 5555 5553 5550 5548 5545 5541 5538 5534 5530 5525 5520 5515 5510 5505 5499 5493 5487 5481 5474 5467 5460 5453 5445 5438 5430 5422 5415 5407 5399 5392
5555 5554 5554 5554 5553 5553 5552 5552 5551 5550 5549 5548 5546 5544 5542 5540 5537 5534 5531 5527 5523 5519 5514 5510 5505 5499 5494 5488 5482 5476 5469 5463 5456 5449 5441 5434 5426 5418 5410 5403 5395 5388 5380
5544 5544 5544 5543 5543 5542 5541 5541 5540 5539 5538 5537 5536 5534 5532 5529 5526 5523 5520 5516 5512 5508 5504 5499 5494 5488 5483 5477 5471 5464 5458 5451 5444 5437 5430 5422 5414 5406 5399 5391 5384 5376 5369
5534 5534 5533 5532 5532 5531 5531 5530 5529 5529 5528 5526 5525 5523 5521 5518 5516 5513 5509 5506 5502 5498 5493 5489 5483 5478 5472 5466 5460 5453 5446 5439 5433 5426 5418 5411 5403 5395 5387 5380 5373 5366 5358
5525 5524 5523 5522 5522 5521 5520 5520 5519 5518 5517 5516 5514 5513 5510 5508 5506 5503 5500 5496 5492 5488 5483 5478 5473 5467 5461 5455 5448 5442 5435 5428 5420 5413 5406 5399 5391 5384 5376 5369 5362 5354 5347